Location: Kalisz
(51.7636°N, 18.0893°E)
Time: 13:26:49
(UTC+01:00)

ISS - Pass Details

Date: 26 January 2019
Orbit: 403 x 411 km, 51.6° (Epoch: 20 February)

Event Time Altitude Azimuth Distance (km) Brightness Sun altitude
Rises 17:37:21 0° 218° (SW) 2,325 1.0 -11.1°
Reaches altitude 10° 17:39:38 10° 205° (SSW) 1,470 -0.4 -11.5°
Maximum altitude 17:42:24 25° 148° (SSE) 873 -2.3 -11.9°
Enters shadow 17:44:02 17° 105° (ESE) 1,121 -2.1 -12.1°
